MDT,Max TemperatureF,Mean TemperatureF,Min TemperatureF,Max Dew PointF,MeanDew PointF,Min DewpointF,Max Humidity, Mean Humidity, Min Humidity, Max Sea Level PressureIn, Mean Sea Level PressureIn, Min Sea Level PressureIn, Max VisibilityMiles, Mean VisibilityMiles, Min VisibilityMiles, Max Wind SpeedMPH, Mean Wind SpeedMPH, Max Gust SpeedMPH,PrecipitationIn, CloudCover, Events, WindDirDegrees
2013-6-1,66,48,30,21,17,10,64,31,14,30.36,30.30,30.24,10,10,10,14,2,22,0.00,0,,256
2013-6-2,75,52,30,30,22,16,69,34,11,30.35,30.23,30.10,10,10,10,22,4,33,0.00,0,,276
2013-6-3,75,55,35,32,28,21,75,37,14,30.20,30.14,30.08,10,10,10,28,6,38,0.00,1,,275
2013-6-4,75,56,37,37,31,27,75,38,17,30.27,30.20,30.13,10,10,5,32,5,54,0.00,1,,257
2013-6-5,73,57,41,36,26,16,70,33,12,30.27,30.21,30.16,10,10,10,24,7,31,0.00,0,,292
2013-6-6,73,54,35,34,27,21,70,35,17,30.30,30.24,30.16,10,10,10,16,3,23,0.00,1,,346
2013-6-7,73,57,41,43,32,27,76,41,18,30.30,30.21,30.12,10,10,10,16,6,24,0.05,1,Thunderstorm,330
2013-6-8,78,58,37,37,31,27,76,39,16,30.21,30.14,30.11,10,10,10,15,4,26,0.00,2,,315
2013-6-9,82,60,39,36,30,25,70,34,12,30.33,30.26,30.22,10,10,10,16,3,21,0.00,0,,312
2013-6-10,87,64,41,34,30,25,70,32,11,30.35,30.26,30.16,10,10,10,18,4,25,0.00,0,Thunderstorm,295
2013-6-11,80,61,42,34,26,19,66,29,11,30.34,30.25,30.19,10,10,5,26,6,39,0.00,0,,268
2013-6-12,84,62,39,30,25,16,65,30,10,30.43,30.35,30.28,10,10,10,17,4,26,0.00,0,,283
2013-6-13,80,61,42,36,29,23,62,31,14,30.39,30.31,30.22,10,10,10,22,4,32,0.00,1,Thunderstorm,223
2013-6-14,80,64,48,39,28,12,62,30,10,30.29,30.22,30.13,10,10,10,22,6,31,0.00,0,,288
2013-6-15,77,56,35,36,26,19,61,34,15,30.35,30.28,30.23,10,10,10,17,3,26,0.00,1,,280
2013-6-16,71,56,41,45,36,30,76,46,23,30.41,30.35,30.29,10,10,6,17,4,29,0.04,1,Thunderstorm,352
2013-6-17,77,60,42,39,33,23,76,41,13,30.39,30.32,30.26,10,10,10,23,7,30,0.03,1,,321
2013-6-18,78,61,44,39,32,16,66,37,13,30.35,30.23,30.10,10,10,9,16,7,23,0.00,0,Thunderstorm,352
2013-6-19,82,60,37,30,22,12,65,28,10,30.19,30.10,30.01,10,10,10,23,6,37,0.00,0,,264
2013-6-20,80,58,37,32,22,18,61,27,11,30.21,30.14,30.09,10,10,10,17,4,24,0.00,0,,278
2013-6-21,78,58,37,34,24,18,66,31,11,30.26,30.18,30.11,10,10,10,15,3,25,0.00,0,,273
2013-6-22,78,58,37,30,24,14,65,31,11,30.23,30.16,30.08,10,10,10,24,6,34,0.00,0,,278
2013-6-23,78,56,35,34,25,19,65,31,12,30.24,30.15,30.07,10,10,10,16,4,28,0.00,0,,320
2013-6-24,77,58,39,32,24,16,70,31,11,30.20,30.14,30.08,10,10,9,20,5,28,0.00,0,,235
2013-6-25,78,61,44,34,27,21,46,27,15,30.34,30.24,30.16,10,10,10,18,6,30,0.00,0,,279
2013-6-26,84,62,41,36,32,28,66,35,14,30.44,30.38,30.32,10,10,10,14,4,18,0.00,0,,345
2013-6-27,89,66,44,39,34,27,76,33,11,30.55,30.48,30.40,10,10,9,16,3,26,0.00,0,,249
2013-6-28,86,67,48,43,37,28,66,36,13,30.56,30.49,30.38,10,10,9,20,4,37,0.00,0,Thunderstorm,177
2013-6-29,84,68,51,45,41,36,71,46,19,30.52,30.42,30.30,10,10,10,29,7,38,0.00,1,Thunderstorm,35
2013-6-30,82,63,44,45,41,36,82,48,19,30.45,30.38,30.27,10,10,10,24,5,33,0.00,1,Thunderstorm,7